Tracking 19562 objects as of 22-Mar-2019
HD Live streaming from Space Station
objects crossing your sky now

COSMOS 570

Track COSMOS 570 now!
10-day predictions
COSMOS 570 is classified as:


NORAD ID: 6681
Int'l Code: 1973-037G
Perigee: 1,343.5 km
Apogee: 1,488.0 km
Inclination: 74.0 °
Period: 114.0 minutes
Semi major axis: 7786 km
RCS: 0.6979 m2 (medium)
Launch date: June 8, 1973
Source: Commonwealth of Independent States (former USSR) (CIS)
Launch site: PLESETSK MISSILE AND SPACE COMPLEX (PKMTR)
aabbcc
Your satellite tracking list
Your tracking list is empty




NASA's NSSDC Master Catalog

Two Line Element Set (TLE):
1  6681U 73037G   19079.86147326 -.00000038 +00000-0 -11338-3 0  9996
2  6681 074.0213 026.4211 0092743 278.5108 110.1869 12.63481197111520
Source of the keplerian elements: AFSPC